DW1762 Weather Reports


time (UTC)temp
F
wind
direction
speed
knots
gust
knots
rain 1hr
in
rain 24hr
in
rain mn
in
humidity
%
barometer
mb
20260504130403 59 188 0.9 5.2 0.00 0.00 0.00 77 1011.5
20260504100403 56 192 0.9 1.7 0.00 0.00 0.00 81 1011.0
20260504082003 56 0 0.0 0.0 0.00 0.00 0.00 81 1011.2
20260504081603 56 114 0.0 0.9 0.00 0.00 0.00 80 1011.2
20260504081203 57 161 0.0 1.7 0.00 0.00 0.00 80 1011.2
20260504080403 57 143 0.9 1.7 0.00 0.00 0.00 80 1011.3
20260504070402 57 152 0.0 3.5 0.00 0.00 0.00 78 1011.7
20260504050403 59 132 0.0 0.9 0.00 0.00 0.00 74 1012.4
20260504050004 59 132 0.0 0.9 0.00 0.00 0.00 73 1012.3
20260504045603 59 0 0.0 0.0 0.00 0.00 0.00 73 1012.4
20260504045203 59 0 0.0 0.0 0.00 0.00 0.00 73 1012.4
20260504044803 60 0 0.0 0.0 0.00 0.00 0.00 72 1012.4
20260504044004 60 132 0.0 0.9 0.00 0.00 0.00 72 1012.4
20260504043603 60 132 0.0 0.9 0.00 0.00 0.00 71 1012.5
20260504043203 60 132 0.0 0.9 0.00 0.00 0.00 71 1012.5
20260504042403 61 134 0.0 0.9 0.00 0.00 0.00 70 1012.6
20260504042004 61 135 0.9 1.7 0.00 0.00 0.00 70 1012.6
20260504041604 61 134 0.9 1.7 0.00 0.00 0.00 70 1012.6
20260504041203 61 138 0.0 1.7 0.00 0.00 0.00 70 1012.7
20260504040403 61 148 0.0 1.7 0.00 0.00 0.00 70 1012.7
20260504040004 61 146 0.0 0.9 0.00 0.00 0.00 70 1012.8
20260504035603 61 140 0.0 1.7 0.00 0.00 0.00 70 1012.8
20260504035203 61 140 0.0 1.7 0.00 0.00 0.00 70 1012.8
20260504034804 61 137 0.0 1.7 0.00 0.00 0.00 70 1012.8
20260504034403 61 137 0.0 0.9 0.00 0.00 0.00 70 1012.9
20260504034003 61 141 0.9 1.7 0.00 0.00 0.00 70 1013.0
20260504033603 61 142 0.9 1.7 0.00 0.00 0.00 69 1013.0
20260504033203 62 142 0.0 0.9 0.00 0.00 0.00 69 1013.1
20260504032804 62 145 0.0 0.9 0.00 0.00 0.00 68 1013.1
20260504032403 62 149 0.0 0.9 0.00 0.00 0.00 68 1013.2
20260504032004 62 0 0.0 0.0 0.00 0.00 0.00 68 1013.2
20260504031203 62 0 0.0 0.0 0.00 0.00 0.00 67 1013.2
20260504030803 62 0 0.0 0.0 0.00 0.00 0.00 66 1013.1
20260504030404 63 0 0.0 0.0 0.00 0.00 0.00 66 1013.1
20260504030004 63 0 0.0 0.0 0.00 0.00 0.00 65 1013.1
20260504025604 63 0 0.0 0.0 0.00 0.00 0.00 65 1013.1
20260504025204 63 0 0.0 0.0 0.00 0.00 0.00 65 1013.0
20260504024804 64 0 0.0 0.0 0.00 0.00 0.00 64 1013.0
20260504024404 64 154 0.0 0.9 0.00 0.00 0.00 64 1013.0
20260504024004 64 154 0.0 0.9 0.00 0.00 0.00 64 1012.9
20260504023603 64 191 0.0 1.7 0.00 0.00 0.00 63 1012.9
20260504023203 64 203 0.0 1.7 0.00 0.00 0.00 63 1012.8
20260504022803 65 0 0.0 0.0 0.00 0.00 0.00 63 1012.8
20260504022403 65 141 0.0 1.7 0.00 0.00 0.00 62 1012.8
20260504022003 65 146 0.0 1.7 0.00 0.00 0.00 62 1012.8
20260504021603 65 179 0.0 1.7 0.00 0.00 0.00 61 1012.8
20260504021203 66 184 0.0 1.7 0.00 0.00 0.00 60 1012.8
20260504020804 66 163 0.0 3.5 0.00 0.00 0.00 60 1012.7
20260504020404 66 152 0.0 3.5 0.00 0.00 0.00 59 1012.6
20260504020004 66 158 0.9 5.2 0.00 0.00 0.00 59 1012.5
20260504015603 66 166 0.0 5.2 0.00 0.00 0.00 59 1012.4
20260504015203 66 162 0.0 5.2 0.00 0.00 0.00 58 1012.5
20260504014804 66 185 0.0 3.5 0.00 0.00 0.00 58 1012.5
20260504014403 67 184 0.0 3.5 0.00 0.00 0.00 58 1012.5
20260504014005 67 178 0.0 2.6 0.00 0.00 0.00 58 1012.5
20260504013603 67 177 0.0 2.6 0.00 0.00 0.00 57 1012.5
20260504013204 68 174 0.0 2.6 0.00 0.00 0.00 56 1012.5
20260504012804 68 168 0.0 2.6 0.00 0.00 0.00 55 1012.5
20260504012404 68 161 0.0 2.6 0.00 0.00 0.00 55 1012.4
20260504012004 69 158 0.0 2.6 0.00 0.00 0.00 55 1012.4
20260504010004 70 176 0.9 3.5 0.00 0.00 0.00 52 1012.2
20260504005604 70 172 0.9 3.5 0.00 0.00 0.00 51 1012.1
20260504005203 71 178 0.9 5.2 0.00 0.00 0.00 51 1012.2
20260504004803 71 179 0.9 5.2 0.00 0.00 0.00 50 1012.1
20260504004403 72 174 0.9 5.2 0.00 0.00 0.00 50 1012.1
20260504004003 72 167 0.9 3.5 0.00 0.00 0.00 49 1012.2
20260504003604 73 169 0.9 2.6 0.00 0.00 0.00 49 1012.2
20260504002804 73 170 0.9 5.2 0.00 0.00 0.00 48 1012.2
20260504002404 73 174 0.9 1.7 0.00 0.00 0.00 47 1012.2
20260504002003 74 177 0.9 2.6 0.00 0.00 0.00 47 1012.2
20260504001604 74 173 0.9 2.6 0.00 0.00 0.00 47 1012.2
20260504001203 75 188 0.9 5.2 0.00 0.00 0.00 46 1012.2
20260504000804 75 186 1.7 5.2 0.00 0.00 0.00 45 1012.4
20260504000404 75 189 1.7 3.5 0.00 0.00 0.00 45 1012.4
20260504000004 76 191 0.9 6.1 0.00 0.00 0.00 45 1012.3
20260503235603 76 192 0.9 6.1 0.00 0.00 0.00 45 1012.2
20260503235203 76 190 1.7 6.1 0.00 0.00 0.00 43 1012.2
20260503234803 76 192 1.7 5.2 0.00 0.00 0.00 44 1012.3
20260503233604 77 178 0.9 3.5 0.00 0.00 0.00 44 1012.4
20260503233204 77 158 0.9 3.5 0.00 0.00 0.00 43 1012.4
20260503232803 77 155 1.7 3.5 0.00 0.00 0.00 41 1012.4
20260503232403 77 165 1.7 6.1 0.00 0.00 0.00 41 1012.4
20260503232004 77 179 2.6 7.8 0.00 0.00 0.00 41 1012.4
20260503231603 77 188 2.6 7.8 0.00 0.00 0.00 42 1012.4
20260503231203 78 184 3.5 8.7 0.00 0.00 0.00 39 1012.5
20260503230804 78 192 3.5 8.7 0.00 0.00 0.00 41 1012.5
20260503230404 78 192 2.6 7.8 0.00 0.00 0.00 40 1012.5
20260503225603 79 186 2.6 8.7 0.00 0.00 0.00 39 1012.7
20260503225205 79 191 2.6 8.7 0.00 0.00 0.00 38 1012.7
20260503224404 79 193 2.6 8.7 0.00 0.00 0.00 39 1012.8
20260503224007 79 197 2.6 7.8 0.00 0.00 0.00 38 1012.8
20260503223604 79 195 2.6 7.8 0.00 0.00 0.00 41 1012.8
20260503223206 78 198 3.5 8.7 0.00 0.00 0.00 41 1012.9
20260503222803 79 201 3.5 8.7 0.00 0.00 0.00 40 1012.9
20260503220804 78 182 3.5 7.8 0.00 0.00 0.00 38 1013.0
20260503220404 78 195 2.6 7.0 0.00 0.00 0.00 40 1013.2
20260503220003 79 185 2.6 7.0 0.00 0.00 0.00 39 1013.2
20260503215604 79 192 2.6 7.8 0.00 0.00 0.00 39 1013.2
20260503215203 78 201 3.5 11.3 0.00 0.00 0.00 40 1013.3
20260503214804 78 208 3.5 11.3 0.00 0.00 0.00 37 1013.3
20260503214003 78 205 3.5 11.3 0.00 0.00 0.00 38 1013.4
20260503213604 78 213 3.5 10.4 0.00 0.00 0.00 41 1013.5
20260503213204 78 220 3.5 10.4 0.00 0.00 0.00 42 1013.5
20260503212803 78 216 2.6 10.4 0.00 0.00 0.00 39 1013.6
20260503212003 78 195 3.5 10.4 0.00 0.00 0.00 39 1013.7
20260503211615 77 192 5.2 13.9 0.00 0.00 0.00 40 1013.9
20260503211203 77 194 5.2 13.9 0.00 0.00 0.00 39 1013.9
20260503210804 77 205 5.2 13.9 0.00 0.00 0.00 40 1013.9
20260503210403 77 204 3.5 13.0 0.00 0.00 0.00 39 1014.0
20260503210006 77 204 3.5 13.0 0.00 0.00 0.00 42 1014.0
20260503205604 77 207 2.6 12.2 0.00 0.00 0.00 42 1014.2
20260503205203 77 208 2.6 7.0 0.00 0.00 0.00 38 1014.2
20260503204006 76 196 3.5 10.4 0.00 0.00 0.00 41 1014.5
20260503203603 77 182 2.6 10.4 0.00 0.00 0.00 39 1014.5
20260503203204 77 174 1.7 7.0 0.00 0.00 0.00 40 1014.6
20260503202808 77 186 2.6 7.0 0.00 0.00 0.00 40 1014.7
20260503201205 76 175 2.6 7.0 0.00 0.00 0.00 41 1015.2
20260503200403 76 160 3.5 9.6 0.00 0.00 0.00 42 1015.4
20260503200004 76 158 3.5 9.6 0.00 0.00 0.00 42 1015.3
20260503195603 76 172 3.5 10.4 0.00 0.00 0.00 43 1015.4
20260503195204 76 187 3.5 10.4 0.00 0.00 0.00 40 1015.5
20260503194803 75 214 3.5 10.4 0.00 0.00 0.00 42 1015.7
20260503194403 75 220 3.5 9.6 0.00 0.00 0.00 42 1015.8
20260503194004 75 218 3.5 9.6 0.00 0.00 0.00 42 1015.8
20260503193204 75 228 3.5 11.3 0.00 0.00 0.00 42 1015.9
20260503192803 74 204 5.2 11.3 0.00 0.00 0.00 45 1016.0
20260503192404 74 195 3.5 8.7 0.00 0.00 0.00 41 1016.2
20260503192004 75 185 3.5 8.7 0.00 0.00 0.00 43 1016.2
20260503191603 74 195 3.5 7.8 0.00 0.00 0.00 41 1016.3
20260503191203 74 198 2.6 7.8 0.00 0.00 0.00 44 1016.4
20260503190803 74 218 3.5 7.8 0.00 0.00 0.00 41 1016.4
20260503190403 73 221 3.5 9.6 0.00 0.00 0.00 41 1016.4
20260503185604 73 203 3.5 9.6 0.00 0.00 0.00 45 1016.5
20260503185204 73 199 5.2 11.3 0.00 0.00 0.00 41 1016.5
20260503184803 73 183 3.5 11.3 0.00 0.00 0.00 43 1016.6
20260503184404 73 155 2.6 9.6 0.00 0.00 0.00 41 1016.5
20260503183604 72 186 3.5 9.6 0.00 0.00 0.00 44 1016.7
20260503183204 72 192 3.5 9.6 0.00 0.00 0.00 44 1016.9
20260503182804 72 209 3.5 9.6 0.00 0.00 0.00 43 1016.9
20260503182004 72 210 3.5 9.6 0.00 0.00 0.00 40 1017.2
20260503180816 71 217 3.5 11.3 0.00 0.00 0.00 42 1017.3
20260503180403 71 201 3.5 11.3 0.00 0.00 0.00 41 1017.4
20260503175603 71 168 3.5 7.8 0.00 0.00 0.00 41 1017.5
20260503175204 70 168 3.5 7.8 0.00 0.00 0.00 43 1017.6
20260503174804 70 190 5.2 10.4 0.00 0.00 0.00 42 1017.7
20260503174404 70 194 5.2 10.4 0.00 0.00 0.00 42 1017.7
20260503174004 70 195 3.5 10.4 0.00 0.00 0.00 42 1017.8
20260503173603 70 187 2.6 9.6 0.00 0.00 0.00 45 1017.9
20260503173203 70 201 2.6 9.6 0.00 0.00 0.00 44 1018.0
20260503172403 70 170 3.5 10.4 0.00 0.00 0.00 39 1018.1
20260503170804 69 194 3.5 9.6 0.00 0.00 0.00 43 1018.1
20260503170403 68 191 3.5 8.7 0.00 0.00 0.00 42 1018.2
20260503150804 58 209 2.6 8.7 0.00 0.00 0.00 65 1019.9
20260503150403 57 215 2.6 8.7 0.00 0.00 0.00 65 1019.9
20260503130803 43 153 1.7 3.5 0.00 0.00 0.00 94 1020.3